#timestamp,LO_Frequency,Hit,StdDev 
1697338815.9,286047002.8,N
1697338835.7,286047000.1,N
1697338855.6,286047000.6,N
1697338875.4,286046998.7,N
1697338895.2,286046999.5,N
1697338915.1,286046997.8,N
1697338916.0,286046997.8,N
1697338935.8,286046995.0,Y
1697338955.7,286046995.6,P
1697338975.5,286046996.4,N
1697338995.3,286046996.2,N
1697339015.2,286046995.8,N
1697339035.0,286046993.5,Y
1697339035.9,286046993.5,P
1697339055.8,286046997.1,N
1697339075.6,286046997.7,N
1697339095.4,286046997.1,N
1697339115.3,286046995.2,Y
1697339135.1,286046998.6,P
1697339155.9,286046998.6,N
1697339175.7,286046999.4,N
1697339195.6,286046999.2,N
1697339215.4,286046997.3,N
1697339235.2,286046999.4,N
1697339255.1,286046999.1,N
1697339256.0,286046999.1,N
1697339275.8,286046999.5,N
1697339295.7,286046997.0,Y
1697339315.5,286046998.1,P
1697339335.3,286046998.6,P
1697339355.2,286046999.3,N
1697339375.0,286046999.1,N
1697339375.9,286046999.1,N
1697339395.8,286046997.0,Y
1697339415.6,286046998.7,P
1697339435.4,286046999.4,P
1697339455.3,286046999.5,N
1697339475.1,286046996.6,Y
1697339495.9,286046998.1,P
1697339515.7,286046998.4,P
1697339535.5,286046998.1,P
1697339555.4,286046998.6,Y
1697339575.2,286046999.8,P
1697339595.0,286047000.1,N
1697339595.9,286047000.1,N
1697339615.8,286047000.1,N
1697339635.6,286046999.7,N
1697339655.5,286046999.7,N
1697339675.3,286046999.8,N
1697339695.1,286047001.0,N
1697339715.9,286046998.3,N
1697339735.7,286046999.0,N
1697339755.5,286046998.5,N
1697339805.4,286046997.1,E
1697339815.3,286046999.1,N
1697339835.1,286046998.1,P
1697339855.9,286047000.3,N
1697339875.7,286047000.8,N
1697339895.6,286047000.4,N
1697339915.4,286047002.8,N
1697339935.2,286047000.0,N
1697339955.1,286047002.8,N
1697339956.0,286047002.8,N
1697339975.8,286047002.6,N
1697339995.7,286047000.3,N
1697340015.5,286047000.3,N
1697340035.3,286047000.6,N
1697340055.2,286047000.5,N
1697340075.0,286047000.3,N
1697340075.9,286047000.3,N
1697340095.8,286047000.0,N
1697340115.6,286047000.9,N
1697340135.4,286046998.4,N
1697340155.3,286046998.9,N
1697340175.1,286046998.5,N
1697340195.8,286046998.1,N
1697340215.7,286047000.5,N
1697340235.5,286046999.9,N
1697340255.4,286047000.4,N
1697340275.2,286047001.0,N
1697340295.0,286046999.7,N
1697340295.9,286046999.7,N
1697340315.8,286047000.9,N
1697340335.6,286046999.9,N
1697340355.4,286047000.3,N
1697340375.3,286047002.4,N
1697340395.1,286047000.1,N
1697340415.9,286047000.9,N
1697340435.7,286047000.6,N
1697340455.5,286047000.7,N
1697340475.4,286047000.5,N
1697340495.2,286047001.2,N
1697340515.0,286046998.3,N
1697340515.9,286046998.3,N
1697340535.8,286046998.3,N
1697340555.6,286046998.8,N
1697340575.5,286046998.8,N
1697340595.3,286046996.9,N
1697340615.1,286046996.6,N
1697340635.9,286046996.5,N
1697340655.7,286046999.6,N
1697340675.6,286046999.1,N
1697340695.4,286046998.9,N
1697340715.2,286046999.2,N
1697340735.1,286046996.6,N
1697340766.0,286046998.9,E
1697340775.0,286046999.4,N
1697340775.9,286046999.4,P
1697340795.8,286046998.3,P
1697340815.6,286046999.5,N
1697340835.4,286046998.7,N
1697340855.3,286046998.8,N
1697340875.1,286046999.5,N
1697340895.9,286046999.5,N
1697340915.7,286046998.3,Y
1697340935.5,286046998.1,P
1697340955.4,286046998.4,P
1697340975.2,286047001.2,N
1697340995.0,286047001.1,N
1697340996.0,286047001.1,N
1697341015.8,286047001.1,N
1697341035.6,286046998.3,N
1697341055.5,286047000.9,N
1697341075.3,286047000.8,N
1697341095.1,286046998.5,N
1697341115.9,286046998.7,N
1697341135.7,286046999.0,N
1697341155.6,286046999.6,N
1697341175.4,286046996.8,N
1697341195.2,286046998.8,N
1697341215.1,286047001.2,N
1697341216.0,286047001.2,N
1697341235.8,286046999.4,N
1697341255.7,286046999.3,N
1697341275.5,286046998.2,N
1697341295.3,286046998.7,N
1697341315.2,286047000.7,N
1697341335.0,286047002.8,N
1697341335.9,286047002.8,N
1697341355.8,286046999.9,N
1697341375.6,286046999.9,N
1697341395.8,286047002.7,N
1697341415.6,286047000.1,N
1697341435.5,286047002.1,N
1697341455.3,286047002.5,N
1697341475.2,286046999.9,N
1697341495.9,286047000.7,N
1697341515.7,286046999.8,N
1697341535.6,286046999.7,N
1697341555.4,286047002.3,N
1697341575.2,286047002.8,N
1697341595.1,286047004.4,N
1697341596.0,286047004.4,N
1697341615.8,286047001.3,N
1697341635.7,286047001.5,N
1697341655.5,286047001.6,N
1697341675.3,286047001.5,N
1697341695.2,286047003.9,N
1697341715.0,286047003.4,N
1697341715.9,286047003.4,N
1697341735.8,286047003.3,N
1697341755.6,286047002.9,N
1697341775.4,286047003.1,N
1697341795.3,286047006.0,Y
1697341815.1,286047003.7,P
1697341835.9,286047001.7,N
1697341855.7,286047004.3,P
1697341875.6,286047003.9,Y
1697341895.4,286047000.1,P
1697341915.2,286047000.2,N
1697341935.1,286047000.3,N
1697341936.0,286047000.3,N
1697341955.8,286046999.7,N
1697341975.6,286047002.7,N
1697341995.5,286047004.3,Y
1697342015.3,286047001.6,P
1697342035.2,286047001.8,P
1697342055.9,286047001.5,P
1697342075.7,286047004.2,Y
1697342095.6,286047002.1,P
1697342115.4,286047002.2,P
1697342135.2,286047001.9,P
1697342155.1,286047003.0,Y
1697342156.0,286047003.0,P
1697342175.8,286047002.0,P
1697342195.7,286047001.6,P
1697342215.5,286047002.5,Y
1697342235.3,286046998.5,P
1697342255.2,286047000.9,N
1697342275.0,286047000.6,N
1697342275.9,286047000.6,N
1697342295.8,286046999.8,N
1697342315.6,286047000.6,N
1697342335.4,286046999.7,N
1697342355.3,286047002.6,N
1697342375.1,286046999.7,N
1697342395.9,286047000.2,N
